Total_Precipitation_Accumulation
1.98 2.10 2.19 2.23 2.38 2.43 2.41 2.30 2.42 2.55 2.74 2.72 2.71 2.71 2.57 2.49 2.59 2.74 2.57 2.80 2.82 2.86 2.80 2.83 2.89 3.12 3.22 3.14 3.23 3.29 3.58 3.90 3.76 3.44 3.11 2.86 2.79 2.76 2.63 2.57 2.45 2.32 2.13
1.88 1.91 2.09 2.23 2.28 2.26 2.20 2.23 2.26 2.28 2.36 2.38 2.35 2.35 2.37 2.56 2.72 2.63 2.58 2.65 2.69 2.60 2.65 2.80 2.65 2.86 3.05 2.97 3.12 3.15 3.33 3.71 3.84 3.92 3.78 3.45 3.20 3.04 2.98 2.75 2.30 2.08 2.12
2.00 2.05 2.20 2.16 2.07 2.10 2.32 2.43 2.35 2.31 2.33 2.29 2.28 2.26 2.27 2.49 2.66 2.58 2.61 2.69 2.69 2.53 2.63 2.65 2.49 2.66 2.74 2.85 2.93 2.99 3.21 3.46 3.79 3.71 3.67 3.59 3.43 3.14 3.26 2.91 2.56 2.49 2.05
2.08 2.22 2.32 2.20 2.17 2.25 2.38 2.49 2.46 2.37 2.39 2.48 2.52 2.41 2.41 2.31 2.31 2.46 2.62 2.61 2.56 2.45 2.48 2.43 2.31 2.35 2.45 2.70 2.74 2.88 3.13 3.36 3.57 3.49 3.50 3.61 3.70 3.68 3.68 3.34 3.11 2.87 2.47
2.10 2.22 2.31 2.35 2.36 2.42 2.43 2.49 2.47 2.37 2.36 2.62 2.64 2.58 2.55 2.34 2.14 2.29 2.43 2.34 2.37 2.33 2.30 2.15 1.98 2.08 2.25 2.34 2.21 2.59 2.99 3.13 3.19 3.24 3.30 3.50 3.64 3.90 3.67 3.50 3.40 3.35 3.01
1.94 2.09 2.16 2.31 2.46 2.48 2.45 2.50 2.48 2.50 2.54 2.57 2.51 2.49 2.37 2.02 2.10 2.05 2.02 2.09 2.16 2.18 2.21 2.19 2.06 1.97 1.94 1.97 1.92 2.11 2.48 2.66 2.87 3.16 3.25 3.42 3.50 3.51 3.67 3.64 3.61 3.48 3.16
1.86 1.99 2.11 2.24 2.36 2.38 2.33 2.47 2.57 2.53 2.45 2.34 2.29 2.31 2.23 2.14 2.00 1.74 1.69 1.85 2.05 2.14 2.18 2.23 1.95 1.78 1.88 1.74 1.81 1.88 1.93 2.04 2.23 2.66 2.94 3.01 3.09 3.13 3.43 3.48 3.49 3.37 3.25
1.89 2.01 2.10 2.25 2.29 2.32 2.34 2.28 2.30 2.32 2.30 2.28 2.14 2.13 2.23 2.12 2.05 1.78 1.67 1.64 1.85 1.88 1.87 1.93 1.99 1.96 1.88 1.94 1.91 1.86 1.72 1.74 1.88 1.89 2.05 2.29 2.58 2.86 3.06 3.23 3.54 3.49 3.40
1.89 2.06 2.20 2.28 2.28 2.28 2.30 2.23 2.25 2.27 2.21 2.22 2.18 2.20 2.20 2.14 2.10 1.88 1.83 1.75 1.83 1.80 1.82 1.86 1.98 2.04 2.11 2.03 1.96 1.95 1.90 1.85 1.79 1.78 1.71 1.80 1.99 2.15 2.37 2.68 3.05 3.38 3.52
1.96 2.09 2.17 2.23 2.33 2.26 2.36 2.44 2.43 2.35 2.29 2.33 2.32 2.27 2.15 2.10 2.02 1.82 1.82 1.77 1.96 2.05 2.12 2.10 2.03 1.89 1.93 1.87 1.82 1.89 1.86 1.83 1.74 1.69 1.62 1.57 1.55 1.70 1.93 2.17 2.52 2.93 3.17
2.01 2.13 2.21 2.28 2.36 2.33 2.40 2.47 2.50 2.46 2.49 2.40 2.25 2.24 2.23 2.11 1.90 1.61 1.56 1.54 1.79 2.06 2.09 2.00 1.88 1.72 1.57 1.53 1.50 1.60 1.72 1.70 1.72 1.76 1.79 1.75 1.76 1.78 1.84 1.95 2.30 2.60 2.75
2.12 2.12 2.23 2.36 2.19 2.17 2.43 2.53 2.57 2.60 2.55 2.45 2.33 2.22 2.22 2.16 1.87 1.65 1.59 1.55 1.68 1.93 2.14 2.09 1.95 1.76 1.54 1.45 1.30 1.36 1.48 1.46 1.53 1.72 1.78 1.77 1.78 1.80 1.89 2.03 2.25 2.46 2.64
2.18 2.24 2.29 2.33 2.41 2.47 2.51 2.58 2.56 2.50 2.46 2.43 2.40 2.29 2.27 2.30 2.21 1.90 1.73 1.70 1.79 1.82 1.96 2.14 2.02 1.71 1.46 1.35 1.31 1.24 1.17 1.18 1.37 1.50 1.54 1.62 1.70 1.81 1.95 2.14 2.37 2.54 2.59
2.33 2.45 2.45 2.40 2.44 2.60 2.73 2.70 2.60 2.45 2.51 2.54 2.42 2.37 2.37 2.39 2.26 2.03 1.85 1.75 1.77 1.75 1.76 1.79 1.76 1.62 1.43 1.39 1.42 1.29 1.17 1.26 1.35 1.37 1.45 1.57 1.66 1.76 1.89 1.99 2.19 2.43 2.57
2.59 2.61 2.64 2.63 2.67 2.74 2.72 2.66 2.65 2.59 2.52 2.54 2.48 2.44 2.42 2.33 2.19 2.08 1.94 1.87 1.85 1.81 1.74 1.75 1.70 1.68 1.54 1.47 1.55 1.57 1.56 1.60 1.55 1.48 1.52 1.56 1.60 1.65 1.71 1.83 2.01 2.15 2.29
2.90 2.76 2.79 2.85 2.87 2.81 2.82 2.64 2.49 2.38 2.29 2.17 2.19 2.18 2.06 2.02 1.95 1.86 1.84 1.85 1.83 1.86 1.75 1.75 1.86 1.85 1.80 1.80 1.83 1.81 1.79 1.73 1.72 1.75 1.74 1.69 1.68 1.69 1.68 1.74 1.89 2.01 2.08
3.04 3.00 2.89 2.85 2.81 2.78 2.85 2.90 2.81 2.60 2.47 2.26 2.10 2.01 1.95 1.90 1.81 1.72 1.75 1.85 1.90 1.92 1.81 1.88 2.02 2.03 2.00 2.00 1.93 1.89 1.93 1.86 1.85 1.85 1.83 1.82 1.85 1.87 1.86 1.90 1.99 2.10 2.09
2.86 2.86 2.81 2.79 2.74 2.75 2.87 2.95 2.90 2.83 2.73 2.52 2.27 2.13 1.93 1.76 1.66 1.66 1.75 1.75 1.71 1.71 1.75 1.96 2.15 2.16 2.17 2.13 2.04 1.96 1.96 1.93 1.87 1.85 1.86 1.85 1.90 1.97 2.00 2.00 2.01 2.07 2.07
2.77 2.75 2.70 2.68 2.78 2.89 2.93 3.00 2.93 2.88 2.83 2.70 2.45 2.25 2.09 1.81 1.67 1.65 1.65 1.57 1.68 1.81 1.88 2.00 2.06 2.09 2.11 2.07 1.98 1.93 1.96 1.93 1.89 1.92 1.92 1.92 1.91 2.01 2.04 2.01 2.00 2.08 2.00
2.82 2.86 2.82 2.69 2.65 2.75 2.87 2.84 2.85 2.85 2.76 2.66 2.57 2.37 2.15 1.96 1.83 1.79 1.70 1.71 1.80 1.84 1.86 1.87 1.86 1.86 1.91 1.96 2.00 2.05 2.10 2.06 2.04 2.01 1.93 1.90 1.90 1.96 2.02 2.07 2.07 2.04 1.97
2.54 2.51 2.49 2.39 2.38 2.41 2.58 2.66 2.73 2.84 2.71 2.57 2.49 2.42 2.21 1.93 1.93 1.91 1.86 1.81 1.81 1.83 1.82 1.83 1.83 1.80 1.78 1.86 1.96 2.00 2.05 2.08 2.05 1.98 1.96 1.96 1.93 1.97 1.98 1.97 1.94 1.87 1.85
2.36 2.35 2.24 2.14 2.18 2.27 2.40 2.49 2.59 2.69 2.65 2.60 2.49 2.39 2.29 2.00 1.92 1.85 1.79 1.74 1.72 1.73 1.75 1.84 1.85 1.82 1.80 1.86 1.91 1.94 1.94 1.92 1.91 1.89 1.90 1.88 1.87 1.90 1.88 1.86 1.86 1.85 1.84
2.48 2.40 2.34 2.29 2.23 2.32 2.31 2.37 2.52 2.54 2.50 2.52 2.44 2.26 2.15 2.13 2.04 1.92 1.82 1.73 1.69 1.69 1.70 1.74 1.75 1.71 1.68 1.70 1.74 1.75 1.72 1.69 1.67 1.66 1.74 1.79 1.81 1.82 1.82 1.81 1.83 1.88 1.87
2.51 2.52 2.39 2.25 2.17 2.14 2.20 2.35 2.44 2.37 2.25 2.23 2.17 2.03 2.02 2.06 2.03 1.96 1.84 1.75 1.72 1.67 1.62 1.58 1.49 1.42 1.42 1.45 1.50 1.51 1.47 1.47 1.48 1.54 1.60 1.67 1.70 1.70 1.72 1.77 1.84 1.88 1.87
2.33 2.44 2.43 2.32 2.19 2.08 2.05 2.09 2.08 2.04 1.96 1.92 1.91 1.91 1.91 1.88 1.83 1.76 1.71 1.69 1.63 1.55 1.45 1.42 1.37 1.34 1.33 1.32 1.32 1.33 1.45 1.47 1.46 1.43 1.43 1.52 1.58 1.62 1.61 1.64 1.72 1.78 1.77
2.16 2.21 2.20 2.13 2.00 1.89 1.88 1.88 1.84 1.77 1.73 1.67 1.62 1.60 1.56 1.57 1.56 1.47 1.41 1.44 1.47 1.46 1.39 1.35 1.33 1.32 1.31 1.28 1.29 1.37 1.38 1.29 1.31 1.35 1.27 1.27 1.40 1.49 1.47 1.43 1.42 1.52 1.56